Location: Albany
(35.0170°S, 117.8920°E)
Time: 17:20:21
(UTC+08:00)

Explorer 11/Cluster Stage 4 - Pass Details

Date: 30 January 2021
Orbit: 467 x 1257 km, 28.8° (Epoch: 02 March)

Event Time Altitude Azimuth Distance (km) Brightness Sun altitude
Rises 03:59:48 0° 331° (NNW) 4,190 - -16.2°
Exits shadow 04:03:40 10° 347° (NNW) 3,253 9.3 -15.5°
Reaches altitude 10° 04:03:53 10° 348° (NNW) 3,207 9.3 -15.5°
Maximum altitude 04:08:56 18° 27° (NNE) 2,579 9.1 -14.6°
Drops below altitude 10° 04:13:44 10° 66° (ENE) 3,014 10.0 -13.8°
Sets 04:17:22 0° 84° (E) 3,847 11.0 -13.2°
